Date String (YYYY-MM-DD hh:mm:ss) UTC,Instrument flags,Ambient pressure (hPa),Sample flow (lpm),Bypass flow (lpm),Sample temperature (°C),Ambient temperature (°C),ASC tube jacket temperature (°C),LED temperature (°C),Box temperature (°C),Sample RH (%),Span deviation,Mass concentration (μg/m³),Mass concentration (μg/m³),Mass concentration (μg/m³)
DateTimeUTC,F1_M11,P_M11,Q1_M11,Q2_M11,T1_M11,T2_M11,T3_M11,T4_M11,T5_M11,U1_M11,ZSPAN_M11,X0_M11,X2_M11,X1_M11
2021-11-24 12:00:00,,0819.0,5.00,0.00,24.9,24.2,00.0,33.9,26.7,10.5,0000.0,0016.95,0004.69,0003.45
2021-11-24 12:01:00,,0819.1,5.01,0.00,24.9,24.2,00.0,33.9,26.7,10.5,0000.0,0017.06,0004.74,0003.48
2021-11-24 12:02:00,,0819.1,5.00,0.00,24.9,24.2,00.0,33.9,26.7,10.4,0000.0,0017.50,0004.78,0003.50
2021-11-24 12:03:00,,0819.2,5.00,0.00,24.9,24.2,00.0,33.9,26.7,10.5,0000.0,0017.43,0004.80,0003.52
2021-11-24 12:04:00,,0819.1,5.00,0.00,24.9,24.2,00.0,33.9,26.7,10.5,0000.0,0017.52,0004.84,0003.54
2021-11-24 12:05:00,,0819.1,5.00,0.00,24.9,24.2,00.0,33.9,26.7,10.5,0000.0,0018.44,0004.87,0003.55
2021-11-24 12:06:00,,0819.1,5.00,0.00,24.9,24.3,00.0,33.9,26.8,10.4,0000.0,0019.10,0004.88,0003.57
2021-11-24 12:07:00,,0819.1,5.00,0.00,25.0,24.3,00.0,33.9,26.8,10.4,0000.0,0019.26,0004.89,0003.57
2021-11-24 12:08:00,,0819.1,5.00,0.00,25.0,24.3,00.0,34.0,26.8,10.4,0000.0,0019.26,0004.88,0003.58
2021-11-24 12:09:00,,0819.1,5.01,0.00,25.0,24.3,00.0,34.0,26.8,10.4,0000.0,0019.13,0004.91,0003.59
2021-11-24 12:10:00,,0819.3,4.99,0.00,25.0,24.3,00.0,34.0,26.8,10.5,0000.0,0017.91,0004.95,0003.59
2021-11-24 12:11:00,,0819.3,5.01,0.00,25.0,24.2,00.0,34.0,26.8,10.5,0000.0,0017.85,0004.94,0003.58
2021-11-24 12:12:00,,0819.2,5.00,0.00,25.0,24.2,00.0,34.0,26.8,10.5,0000.0,0016.77,0004.90,0003.56
2021-11-24 12:13:00,,0819.3,5.01,0.00,24.9,24.1,00.0,34.0,26.7,10.5,0000.0,0015.29,0004.85,0003.55
2021-11-24 12:14:00,,0819.4,4.99,0.00,24.9,24.1,00.0,34.0,26.7,10.6,0000.0,0015.14,0004.80,0003.54
2021-11-24 12:15:00,,0819.4,5.00,0.00,24.9,24.2,00.0,34.0,26.7,10.6,0000.0,0014.70,0004.77,0003.52
2021-11-24 12:16:00,,0819.4,5.01,0.00,24.9,24.2,00.0,34.0,26.8,10.7,0000.0,0013.62,0004.74,0003.52
2021-11-24 12:17:00,,0819.4,5.00,0.00,24.9,24.2,00.0,34.0,26.8,10.8,0000.0,0013.37,0004.77,0003.50
2021-11-24 12:18:00,,0819.4,5.00,0.00,24.9,24.2,00.0,34.0,26.8,10.8,0000.0,0013.60,0004.75,0003.48
2021-11-24 12:19:00,,0819.5,4.99,0.00,25.0,24.2,00.0,34.0,26.8,10.8,0000.0,0014.61,0004.76,0003.45
2021-11-24 12:20:00,,0819.5,5.01,0.00,25.0,24.3,00.0,34.0,26.8,10.7,0000.0,0013.91,0004.72,0003.43
2021-11-24 12:21:00,,0819.6,5.00,0.00,25.0,24.3,00.0,34.0,26.8,10.7,0000.0,0014.10,0004.72,0003.41
2021-11-24 12:22:00,,0819.7,5.00,0.00,25.0,24.3,00.0,34.0,26.8,10.6,0000.0,0014.67,0004.72,0003.41
2021-11-24 12:23:00,,0819.8,5.01,0.00,25.0,24.3,00.0,34.0,26.8,10.6,0000.0,0015.34,0004.70,0003.40
2021-11-24 12:24:00,,0819.8,4.99,0.00,25.0,24.3,00.0,34.0,26.8,10.7,0000.0,0015.50,0004.67,0003.39
2021-11-24 12:25:00,,0819.9,5.00,0.00,25.0,24.3,00.0,34.0,26.8,10.6,0000.0,0015.97,0004.70,0003.39
2021-11-24 12:26:00,,0819.8,5.00,0.00,25.0,24.3,00.0,34.0,26.9,10.7,0000.0,0016.37,0004.77,0003.39
2021-11-24 12:27:00,,0819.8,5.01,0.00,25.0,24.3,00.0,34.0,26.8,10.8,0000.0,0016.98,0004.82,0003.38
2021-11-24 12:28:00,,0819.8,4.99,0.00,25.0,24.3,00.0,34.0,26.8,10.8,0000.0,0018.02,0004.80,0003.36
2021-11-24 12:29:00,,0819.8,5.00,0.00,25.0,24.2,00.0,34.0,26.8,10.8,0000.0,0017.86,0004.80,0003.36
2021-11-24 12:30:00,,0819.9,5.00,0.00,24.9,24.2,00.0,34.0,26.7,10.8,0000.0,0017.17,0004.76,0003.36
2021-11-24 12:31:00,,0819.9,5.01,0.00,24.9,24.1,00.0,34.0,26.6,10.8,0000.0,0017.63,0004.76,0003.35
2021-11-24 12:32:00,,0820.0,5.00,0.00,24.9,24.1,00.0,34.0,26.6,10.8,0000.0,0017.43,0004.68,0003.34
2021-11-24 12:33:00,,0820.0,4.99,0.00,24.8,24.0,00.0,33.9,26.5,10.8,0000.0,0017.91,0004.62,0003.32
2021-11-24 12:34:00,,0819.9,5.00,0.00,24.8,23.9,00.0,33.9,26.4,10.8,0000.0,0017.50,0004.58,0003.31
2021-11-24 12:35:00,,0819.9,5.00,0.00,24.7,23.8,00.0,33.9,26.4,10.8,0000.0,0018.87,0004.58,0003.30
2021-11-24 12:36:00,,0819.9,5.00,0.00,24.7,23.7,00.0,33.9,26.4,10.9,0000.0,0018.77,0004.58,0003.27
2021-11-24 12:37:00,,0819.9,4.99,0.00,24.7,23.7,00.0,33.9,26.4,10.9,0000.0,0018.88,0004.53,0003.25
2021-11-24 12:38:00,,0819.9,4.99,0.00,24.6,23.7,00.0,33.8,26.3,10.9,0000.0,0017.89,0004.46,0003.23
2021-11-24 12:39:00,,0819.9,5.00,0.00,24.6,23.7,00.0,33.8,26.3,11.0,0000.0,0017.77,0004.43,0003.23
2021-11-24 12:40:00,,0819.9,5.01,0.00,24.6,23.7,00.0,33.8,26.3,11.0,0000.0,0020.10,0004.40,0003.23
2021-11-24 12:41:00,,0819.9,5.00,0.00,24.6,23.6,00.0,33.8,26.3,11.0,0000.0,0021.08,0004.39,0003.23
2021-11-24 12:42:00,,0819.9,5.00,0.00,24.5,23.6,00.0,33.8,26.3,10.9,0000.0,0020.39,0004.35,0003.23
2021-11-24 12:43:00,,0819.9,5.00,0.00,24.5,23.6,00.0,33.7,26.2,11.0,0000.0,0020.02,0004.34,0003.23
2021-11-24 12:44:00,,0819.9,5.00,0.00,24.5,23.5,00.0,33.7,26.1,11.0,0000.0,0019.82,0004.35,0003.22
2021-11-24 12:45:00,,0819.9,5.00,0.00,24.4,23.5,00.0,33.7,26.1,11.0,0000.0,0019.25,0004.31,0003.20
2021-11-24 12:46:00,,0819.9,5.00,0.00,24.4,23.5,00.0,33.7,26.1,10.9,0000.0,0018.56,0004.28,0003.18
2021-11-24 12:47:00,,0819.9,5.01,0.00,24.4,23.5,00.0,33.6,26.1,10.8,0000.0,0018.68,0004.26,0003.17
2021-11-24 12:48:00,,0820.0,5.00,0.00,24.4,23.5,00.0,33.6,26.1,10.8,0000.0,0018.67,0004.21,0003.16
2021-11-24 12:49:00,,0820.0,5.00,0.00,24.4,23.5,00.0,33.6,26.1,11.0,0000.0,0018.80,0004.21,0003.14
2021-11-24 12:50:00,,0820.0,5.00,0.00,24.3,23.4,00.0,33.6,26.1,11.2,0000.0,0018.18,0004.25,0003.13
2021-11-24 12:51:00,,0820.1,5.00,0.00,24.3,23.4,00.0,33.5,26.0,11.3,0000.0,0016.08,0004.27,0003.12
2021-11-24 12:52:00,,0820.2,5.01,0.00,24.3,23.4,00.0,33.5,26.0,11.3,0000.0,0015.12,0004.27,0003.12
2021-11-24 12:53:00,,0820.2,4.98,0.00,24.3,23.4,00.0,33.5,25.9,11.4,0000.0,0015.20,0004.27,0003.12
2021-11-24 12:54:00,,0820.2,4.99,0.00,24.2,23.4,00.0,33.5,25.9,11.4,0000.0,0015.61,0004.28,0003.13
2021-11-24 12:55:00,,0820.2,5.01,0.00,24.2,23.3,00.0,33.4,25.9,11.4,0000.0,0015.68,0004.26,0003.14
2021-11-24 12:56:00,,0820.2,5.00,0.00,24.2,23.3,00.0,33.4,25.8,11.4,0000.0,0016.54,0004.28,0003.14
2021-11-24 12:57:00,,0820.2,5.01,0.00,24.1,23.2,00.0,33.4,25.7,11.4,0000.0,0016.25,0004.28,0003.16
2021-11-24 12:58:00,,0820.2,5.00,0.00,24.1,23.2,00.0,33.4,25.7,11.3,0000.0,0017.82,0004.30,0003.16
2021-11-24 12:59:00,,0820.2,5.00,0.00,24.1,23.2,00.0,33.4,25.7,11.3,0000.0,0017.47,0004.34,0003.17
